Starlink 32108

operational
NORAD ID: 59682 Int'l Des: 2024-086 Owner: SPXS Country: US Constellation: starlink
LEOCIRCULAR

Starlink 32108について

説明を読み込み中...

リアルタイム位置

3D地球を読み込み中...

次回通過

高度履歴

Altitude vs Time

uPlot chart will show altitude changes over time

軌道要素

1 59682U 24086A 25257.49677017 -.00005118 00000-0 -17640-3 0 9990
2 59682 43.0090 338.5498 0002889 279.9073 80.1453 15.27605018 77114
Epoch: Sep 14, 2025 • Age: 18 hours

現在のステータス

高度 494.3 km
速度 7.62 km/s
衛星直下点 -43.03°S, 159.58°E
打ち上げ日 May 8, 2024
運用期間 1.3 years
タイプ internet

技術仕様

分類 Payload
質量 730.00 kg
乾燥質量 700.00 kg
総質量 730.00 kg
長さ 0.30 m
直径 4.10 m
スパン 29.00 m
形状 Box + pan
製造者 SPXS
バスタイプ Starlink V2M
フェーズステータス In Orbit
所有者/国 SPXS/US

大規模コンステレーション

Loading constellations...